Terug naar catalogus

FREGAT DEB

LostHEO
NORAD 46023·DEBRIS·🇷🇺 Russia

Gelanceerd Jul 18, 2011 vanaf Baikonur Cosmodrome

Loading…

Volgende Passages (komende 24 uur)

TLE

VerouderdSource: Space-Track

Epoch: Aug 30, 2020, 07:36 UTC

1 46023U 11037JA  20243.31679810  .00166920  00000-0  10262+0 0  9997
2 46023  51.3757 254.6196 2826932 126.3564 263.2547  9.24540295  3526

Volg FREGAT DEB in realtime met AllMySat

Download on the App Store